Quick links : Home Page : Contact Us : Index : Site Map : Search Site : Ephemerides


(57915) 2002 EB110

Orbital Elements

The following orbital elements are taken from MPO 62206
 (57915) 2002 EB110
Epoch 2007 Oct. 27.0 TT = JDT 2454400.5                 MPC
M 197.89856              (2000.0)            P               Q
n   0.08299174     Peri.  129.95410     -0.85125873     -0.51778371
a   5.2053044      Node    19.34038     +0.36771319     -0.70442950
e   0.0376206      Incl.   14.90722     +0.37436023     -0.48546792
P  11.9            H   12.5           G   0.15           U   1
From 48 observations at 6 oppositions, 1996-2003, mean residual 0".67.
An explanation of the orbital elements is available.

These orbital elements are also available in forms suitable for loading into a number of popular planetarium-type software programs.


Ephemeris

The following ephemeris is at intervals of five days. A daily ephemeris covering the same time interval is also available.

Personalized ephemerides for this (and other) objects may be generated using the Minor Planet & Comet Ephemeris Service.

Date    TT    R. A. (2000) Decl.     Delta      r     Elong.  Phase     V
2008 04 14    00 19.92   -02 35.4    6.296    5.373    21.2     3.9    20.5
 
2008 05 04    00 34.54   -00 45.9    6.149    5.370    36.4     6.4    20.6
2008 05 09    00 38.00   -00 20.2    6.101    5.370    40.2     7.0    20.6
2008 05 14    00 41.37   +00 04.6    6.049    5.369    44.1     7.5    20.6
2008 05 19    00 44.62   +00 28.5    5.993    5.368    48.0     8.0    20.6
2008 05 24    00 47.75   +00 51.5    5.933    5.367    51.9     8.5    20.6
2008 05 29    00 50.75   +01 13.6    5.870    5.367    55.8     9.0    20.6
2008 06 03    00 53.61   +01 34.6    5.804    5.366    59.8     9.4    20.6
2008 06 08    00 56.31   +01 54.5    5.735    5.365    63.8     9.8    20.6
2008 06 13    00 58.84   +02 13.3    5.663    5.364    67.9    10.1    20.6
2008 06 18    01 01.20   +02 30.9    5.590    5.363    72.0    10.4    20.5
2008 06 23    01 03.36   +02 47.3    5.514    5.363    76.2    10.6    20.5
2008 06 28    01 05.32   +03 02.3    5.437    5.362    80.4    10.8    20.5
2008 07 03    01 07.05   +03 16.1    5.360    5.361    84.6    10.9    20.5
2008 07 08    01 08.56   +03 28.4    5.281    5.360    89.0    10.9    20.4
2008 07 13    01 09.82   +03 39.3    5.203    5.359    93.4    10.9    20.4
2008 07 18    01 10.83   +03 48.7    5.124    5.358    97.8    10.8    20.4
2008 07 23    01 11.57   +03 56.7    5.047    5.357   102.4    10.7    20.3
2008 07 28    01 12.03   +04 03.1    4.971    5.357   107.0    10.4    20.3
2008 08 02    01 12.22   +04 08.0    4.897    5.356   111.7    10.1    20.2
2008 08 07    01 12.11   +04 11.4    4.825    5.355   116.5     9.8    20.2
2008 08 12    01 11.71   +04 13.2    4.756    5.354   121.4     9.3    20.1
2008 08 17    01 11.02   +04 13.5    4.691    5.353   126.3     8.8    20.1
2008 08 22    01 10.04   +04 12.4    4.630    5.352   131.3     8.2    20.0
2008 08 27    01 08.78   +04 09.8    4.573    5.351   136.5     7.5    20.0
2008 09 01    01 07.25   +04 06.0    4.522    5.350   141.7     6.7    19.9
2008 09 06    01 05.47   +04 00.9    4.476    5.349   146.9     5.9    19.9
2008 09 11    01 03.47   +03 54.7    4.437    5.348   152.3     5.0    19.8
2008 09 16    01 01.26   +03 47.7    4.404    5.347   157.7     4.1    19.7
2008 09 21    00 58.89   +03 39.9    4.378    5.346   163.1     3.1    19.7
2008 09 26    00 56.39   +03 31.6    4.359    5.346   168.6     2.1    19.6
2008 10 01    00 53.79   +03 23.0    4.348    5.345   174.0     1.1    19.5
2008 10 06    00 51.14   +03 14.3    4.344    5.344   177.9     0.4    19.4
2008 10 11    00 48.49   +03 05.8    4.349    5.343   174.1     1.1    19.5
2008 10 16    00 45.89   +02 57.7    4.361    5.342   168.7     2.1    19.6
2008 10 21    00 43.36   +02 50.2    4.380    5.341   163.2     3.1    19.7
2008 10 26    00 40.96   +02 43.6    4.407    5.340   157.6     4.1    19.7
2008 10 31    00 38.72   +02 38.0    4.441    5.339   152.1     5.0    19.8
2008 11 05    00 36.69   +02 33.7    4.482    5.338   146.6     5.9    19.9
2008 11 10    00 34.88   +02 30.8    4.529    5.337   141.1     6.7    19.9
2008 11 15    00 33.33   +02 29.4    4.582    5.335   135.8     7.4    20.0
2008 11 20    00 32.04   +02 29.6    4.640    5.334   130.4     8.1    20.0
2008 11 25    00 31.05   +02 31.5    4.704    5.333   125.2     8.7    20.1
2008 11 30    00 30.35   +02 35.2    4.771    5.332   120.0     9.2    20.1
2008 12 05    00 29.96   +02 40.6    4.842    5.331   114.8     9.7    20.2
2008 12 10    00 29.88   +02 47.8    4.916    5.330   109.8    10.0    20.2
2008 12 15    00 30.10   +02 56.7    4.992    5.329   104.8    10.3    20.3
2008 12 20    00 30.61   +03 07.2    5.070    5.328    99.9    10.5    20.3
2008 12 25    00 31.42   +03 19.5    5.149    5.327    95.1    10.6    20.4
2008 12 30    00 32.51   +03 33.3    5.229    5.326    90.3    10.6    20.4
2009 01 04    00 33.87   +03 48.6    5.308    5.325    85.6    10.6    20.4
2009 01 09    00 35.48   +04 05.4    5.388    5.324    81.0    10.5    20.5
2009 01 14    00 37.34   +04 23.5    5.466    5.323    76.5    10.4    20.5
2009 01 19    00 39.43   +04 42.9    5.543    5.321    72.0    10.1    20.5
2009 01 24    00 41.74   +05 03.5    5.618    5.320    67.6     9.8    20.5
2009 01 29    00 44.26   +05 25.2    5.690    5.319    63.2     9.5    20.5
2009 02 03    00 46.96   +05 48.0    5.760    5.318    58.9     9.1    20.5
2009 02 08    00 49.84   +06 11.6    5.827    5.317    54.6     8.7    20.5
2009 02 13    00 52.87   +06 36.1    5.890    5.316    50.4     8.2    20.6
2009 02 18    00 56.06   +07 01.4    5.949    5.315    46.3     7.7    20.6
2009 02 23    00 59.39   +07 27.3    6.005    5.313    42.2     7.2    20.5
2009 02 28    01 02.83   +07 53.9    6.056    5.312    38.1     6.6    20.5
2009 03 05    01 06.40   +08 20.9    6.103    5.311    34.1     6.0    20.5
2009 03 10    01 10.06   +08 48.4    6.146    5.310    30.1     5.4    20.5

Back to Observable Critical-List Minor Planets

MPC

Valid HTML 4.01!